sat.trackr.live / text

‹ back to catalog

STARLINK-30602

NORAD 58081 · 2023-160G

PAYLOAD ACTIVE UNKNOWN

§ Identity

Operator
Country
US
Launch date
2023-10-18
Launch site
AFETR
Launch vehicle
Mass (kg)
RCS (m²)

Purposes: comms

External: N2YO · Heavens-Above · Gunter

§ Orbital elements

Epoch: 2026-05-24T23:39:55.938240Z

Period
94.42 min
Inclination
43.0048°
Eccentricity
0.0001224
Mean motion
15.25093963 rev/d
Perigee alt
489.7 km
Apogee alt
491.3 km
Semi-major
6,868.6 km
B*
7.0570e-4
RAAN
9.6377°
Arg perigee
254.9019°
Mean anomaly
105.1697°
Rev number
14,458

§ Raw data

STARLINK-306021 58081U 23160G   26144.98606410  .00017800  00000+0  70570-3 0  99922 58081  43.0048   9.6377 0001224 254.9019 105.1697 15.25093963144588

JSON: /api/v1/satellites/58081 · /tle

For live sub-satellite position, see the globe view (requires WebGL).

§ Visibility from observer

Set your observer location to see the next 7 days of passes ≥ 10°. The values pass through the URL so the page stays shareable.

No JS? Fill the form by hand. The geolocation button needs JavaScript.